Skip Page Navigation
NASA JPL Caltech
NASA Logo - Jet Propulsion Laboratory + View the NASA Portal
+ Center for Near-Earth Object Studies
JPL Home Earth Solar System Stars & Galaxies Technology
JPL Solar System Dynamics
BODIES ORBITS EPHEMERIDES TOOLS PHYSICAL DATA DISCOVERY FAQ SITE MAP
JPL Small-Body Database Browser
Search: [ help ]  
3063 Makhaon (1983 PV)
Classification: Jupiter Trojan          SPK-ID: 2003063
Ephemeris | Orbit Diagram | Orbital Elements | Mission Design | Physical Parameters | Discovery Circumstances ]

[ show orbit diagram ]
Orbital Elements at Epoch 2459000.5 (2020-May-31.0) TDB
Reference: JPL 34 (heliocentric ecliptic J2000)
 Element Value Uncertainty (1-sigma)   Units 
e .05826101791189343 5.7619e-08  
a 5.213267490662044 8.5596e-08 au
q 4.90953722000909 3.1336e-07 au
i 12.16133549863806 5.8783e-06 deg
node 287.8656118693829 2.5463e-05 deg
peri 204.7952804741929 5.0082e-05 deg
M 235.1213786879158 4.6225e-05 deg
tp 2460508.665614816016
(2024-Jul-17.16561482)
0.00057799 TDB
period 4347.73875327231
11.90
0.00010708
2.932e-07
d
yr
n .08280166321609074 2.0393e-09 deg/d
Q 5.516997761314997 9.0582e-08 au
  Orbit Determination Parameters
   # obs. used (total)      2064  
   data-arc span      32675 days (89.46 yr)  
   first obs. used      1931-02-18  
   last obs. used      2020-08-04  
   planetary ephem.      DE431  
   SB-pert. ephem.      SB431-N16  
   condition code      0  
   norm. resid. RMS      .41654  
   source      ORB  
   producer      Otto Matic  
   solution date      2020-Aug-24 22:59:38  

Additional Information
 Earth MOID = 3.92867 au 
 Jupiter MOID = .266439 au 
 T_jup = 2.952 
[ show covariance matrix ]

Ephemeris | Orbit Diagram | Orbital Elements | Mission Design | Physical Parameters | Discovery Circumstances ]

Physical Parameter Table
Parameter Symbol Value Units Sigma Reference Notes
absolute magnitude H 8.5   n/a MPO502182  
diameter diameter 111.655 km 1.544 urn:nasa:pds:neowise_diameters_albedos::2.0[jupiter_trojans] (http://adsabs.harvard.edu/abs/2012ApJ...759...49G)  
rotation period rot_per 8.64 h n/a LCDB (Rev. 2019-August); Warner et al., 2009 Result based on less than full coverage, so that the period may be wrong by 30 percent or so.
Published Reference List:
[French, L.M.; Stephens, R.D.; Lederer, S.M.; Coley, D.R.; Rohl, D.A. (2011) Minor Planet Bull. 38, 116-120.]
[Mottola, S.; Di Martino, M.; Erikson, A.; Gonano-Beurer, M.; et al. (2011) Astron. J. 141, A170.]
[Alkema, M.S. (2013) Minor Planet Bull. 40, 133-137.]
[Stephens, R.D.; Coley, D.R.; Warner, B.D.; French, L.M. (2016) Minor Planet Bull. 43, 323-331.]
geometric albedo albedo 0.056   0.005 urn:nasa:pds:neowise_diameters_albedos::2.0[jupiter_trojans] (http://adsabs.harvard.edu/abs/2012ApJ...759...49G)  

3063 Makhaon (1983 PV)          Discovered 1983-Aug-04 by Karachkina, L. G. at Nauchnyj
Reference: DISCOVERY.DBLast Updated: 2003-08-29

Alternate Designations
 1983 PV = 1931 DT = 1964 YL = 1971 OE = 1971 QK1 = 1975 VT6 
Ephemeris | Orbit Diagram | Orbital Elements | Mission Design | Physical Parameters | Discovery Circumstances ]
ABOUT SSD CREDITS/AWARDS PRIVACY/COPYRIGHT GLOSSARY LINKS
FirstGov 2020-Oct-21 22:14 UT
(server date/time)  
NASA Home Page
Site Manager:   Ryan S. Park
Webmaster  Alan B. Chamberlin